AirNav   Air Wisconsin pilot careers
 
 1431 users online  

9VG Campbell Field Airport
Weirwood, Virginia, USA

GOING TO WEIRWOOD?


FAA INFORMATION EFFECTIVE 08 NOVEMBER 2018

Location

FAA Identifier: 9VG
Lat/Long: 37-27-30.4900N / 075-52-43.7500W
37-27.508167N / 075-52.729167W
37.4584694 / -75.8788194
(estimated)
Elevation: 40 ft. / 12 m (estimated)
Variation: 08W (1970)
From city: 1 mile W of WEIRWOOD, VA
Time zone: UTC -5 (UTC -4 during Daylight Saving Time)
Zip code: 23413

Airport Operations

Airport use: Open to the public
Activation date: 11/1937
Control tower: no
ARTCC: WASHINGTON CENTER
FSS: LEESBURG FLIGHT SERVICE STATION
NOTAMs facility: DCA (NOTAM-D service available)
Attendance: MAR-NOV DAYLIGHT HOURS, DEC-FEB IREG
Wind indicator: yes
Segmented circle: no

Airport Communications

CTAF: 122.9
WX AWOS-3 at MFV (13 nm NE): 118.175 (757-787-5660)

Nearby radio navigation aids

VOR radial/distance  VOR name  Freq  Var
CCVr050/8.7CAPE CHARLES VORTAC112.2010W
ORFr031/37.3NORFOLK VORTAC116.9007W
HCMr096/39.7HARCUM VORTAC108.8007W

Airport Services

Parking: tiedowns

Runway Information

Runway 3/21

Dimensions: 3000 x 100 ft. / 914 x 30 m
Surface: turf, in good condition
RUNWAY 3  RUNWAY 21
Traffic pattern: leftleft
Obstructions: 60 ft. pline, marked, 300 ft. from runway, 5:1 slope to clear15 ft. road, 25 ft. from runway, 1:1 slope to clear

Runway 14/32

Dimensions: 1455 x 140 ft. / 443 x 43 m
Surface: turf, in good condition
RUNWAY 14  RUNWAY 32
Traffic pattern: leftleft
Obstructions: 15 ft. road, 20 ft. from runway, 1:1 slope to clear53 ft. trees, 555 ft. from runway, 19 ft. left of centerline, 10:1 slope to clear

Airport Ownership and Management from official FAA records

Ownership: Privately-owned
Owner: CAMPBELL FIELD INC.
PO BOX 64
NASSAWADOX, VA 23413-0084
Phone 914-772-6242
Manager: GORDAN CAMPBELL
PO BOX 64
NASSAWADOX, VA 23413-0084
Phone 914-772-6242
AIRPORT OFFICE CALL 757-442-7519.

Airport Operational Statistics

Aircraft based on the field: 7
Single engine airplanes: 3
Ultralights: 4
    
Aircraft operations: avg 22/week *
87% local general aviation
12% transient general aviation
<1% military
* for 12-month period ending 04 March 1997

Additional Remarks

BE ALERT: 60 FT PLINES LCTD 300 FT SW OFF THE AER 03.
FOR CD CTC ORF APCH AT 757-464-0757.

Instrument Procedures

There are no published instrument procedures at 9VG.

Some nearby airports with instrument procedures:

KMFV - Accomack County Airport (13 nm NE)
KTGI - Tangier Island Airport (23 nm N)
W75 - Hummel Field Airport (28 nm W)
KLFI - Langley Air Force Base (32 nm SW)
W41 - Crisfield-Somerset County Airport (34 nm N)
 
Loc | Ops | Rwys | IFR | FBO | Links
Com | Nav | Svcs | Stats | Notes


 
Area around 9VG (Campbell Field Airport)
 
Road maps at: MapQuest Bing Google
 
Aerial photo
WARNING: Photo may not be current or correct
Aerial photo of 9VG (Campbell Field Airport)
Photo by Gordon Campbell / At Altitude Gallery
Photo taken 09-Jul-2017
looking south.

Do you have a better or more recent aerial photo of Campbell Field Airport that you would like to share? If so, please send us your photo.

 
Sectional chart

 
Airport distance calculator
Flying to Campbell Field Airport? Find the distance to fly.

From to 9VG

Sunrise and sunset
Times for 19-Nov-2018
 Local
(UTC-5)
 Zulu
(UTC)
Morning civil twilight06:2011:20
Sunrise06:4811:48
Sunset16:5021:50
Evening civil twilight17:1822:18

Current date and time
Zulu (UTC)  19-Nov-2018 17:16:19
Local (UTC-5)  19-Nov-2018 12:16:19
 
METAR
KMFV 
12nm NE 
191655Z AUTO 22004KT 10SM SCT075 SCT085 15/08 A3010 RMK AO2 T01480079
KTGI 
23nm N 
191702Z AUTO 22006KT 10SM CLR 13/09 A3010 RMK AO1
TAF
KLFI 
33nm SW 
191430Z 1914/2016 VRB06KT 9999 SCT050 BKN070 OVC200 QNH3010INS BECMG 1916/1917 19009KT 9999 SCT050 OVC200 QNH3005INS BECMG 1923/1924 VRB06KT 6000 BR SCT020 QNH3001INS BECMG 2014/2015 28012KT 9999 NSW FEW030 510043 QNH2996INS TX13/1918Z TN04/2004Z
KPHF 
35nm SW 
191154Z 1912/2012 00000KT 3SM BR BKN002 BKN070 TEMPO 1912/1914 5SM BR SCT002 FM191400 21006KT P6SM BKN070 FM200200 VRB03KT P6SM BKN030
KORF 
37nm SW 
191154Z 1912/2012 00000KT 6SM BR BKN050 FM191300 VRB03KT P6SM VCSH BKN040 FM191500 20004KT 6SM -RA BKN030 FM191800 20005KT P6SM VCSH OVC035 FM200100 20004KT P6SM BKN030
KNGU 
37nm SW 
1915/2015 19004KT 9999 VCSH BKN040 OVC150 QNH3000INS FM200000 20004KT 9999 SCT040 BKN250 QNH2995INS FM200900 VRB04KT 9000 BR BKN040 BKN250 QNH2990INS T16/1919Z T10/2010Z FN20004
KNTU 
39nm S 
1915/2015 VRB06KT 9000 BR FEW010 SCT030 BKN220 QNH3009INS TEMPO 1915/1920 4800 -RA BR SCT005 BKN030 OVC060 FM192000 20008KT 9999 FEW015 SCT180 QNH2997INS FM200100 22010KT 9999 FEW015 BKN030 BKN060 BKN180 QNH2995INS T15/1919Z T06/2009Z FN20008
KFAF 
41nm SW 
191100Z 1911/2017 VRB06KT 8000 BR BKN200 QNH3014INS BECMG 1917/1918 24009KT 8000 -DZ BKN030 QNH2991INS BECMG 1921/1922 25006KT 4800 BR FEW050 QNH3000INS BECMG 2011/2012 31010G15KT 9999 NSW BKN020 QNH2993INS TX12/1920Z TN08/2010Z
NOTAMs
Click for the latest NOTAMs
NOTAMs are issued by the DoD/FAA and will open in a separate window not controlled by AirNav.

 

 
 

FBO, Fuel Providers, and Aircraft Ground Support

  
 Business Name 
 
 Contact 
 
 Services / Description 
 
Fuel Prices
 
Comments
  
Eastern Shore Flying Service 757-442-7519
no information available

If you are affiliated with Eastern Shore Flying Service and would like to show here your services, contact info, web link, logo, and more, click here
no fuel
 
   write
Update Fuel Prices
 

Would you like to see your business listed on this page?

 If your business provides an interesting product or service to pilots, flight crews, aircraft, or users of the Campbell Field Airport, you should consider listing it here.  To start the listing process, click on the button below
 
Add a business
 

Other Pages about Campbell Field Airport

www.campbellfieldairport.com
www.flyvirginia.com/...
 
Update a link
 
Copyright © AirNav, LLC. All rights reserved. Privacy Policy  Contact